This demonstration page uses our WeatherBlox Daily Observations layout. Learn more.

Left ArrowRight Arrow

Hourly Observations for October 21, 2022

Temp ( °F °C ) Dew Point ( °F °C ) Humidity (%) Winds ( mph kmh ) Pressure ( in mb ) Visibility ( mi km ) Precip ( " mm )
12:53 am 00:53 Clear 59 15 39 3.9 47 47 N 3 6 29.84 1011 10 16 0.00 0.00
1:53 am 01:53 Clear 56 13.3 38 3.3 51 51 Calm 29.87 1011 10 16 0.00 0.00
2:53 am 02:53 Clear 55 12.8 36 2.2 48 48 NW 8 13 29.87 1011 10 16 0.00 0.00
3:53 am 03:53 Clear 53 11.7 38 3.3 56 56 NW 3 6 29.86 1011 10 16 0.00 0.00
4:53 am 04:53 Clear 53 11.7 38 3.3 56 56 Calm 29.85 1011 10 16 0.00 0.00
5:53 am 05:53 Clear 50 10 36 2.2 58 58 Calm 29.85 1011 10 16 0.00 0.00
6:53 am 06:53 Clear 50 10 37 2.8 61 61 Calm 29.86 1011 10 16 0.00 0.00
7:53 am 07:53 Sunny 51 10.6 38 3.3 61 61 Calm 29.87 1011 10 16 0.00 0.00
8:53 am 08:53 Sunny 57 13.9 39 3.9 51 51 Calm 29.87 1012 10 16 0.00 0.00
9:53 am 09:53 Sunny 66 18.9 37 2.8 34 34 Calm 29.86 1011 10 16 0.00 0.00
10:53 am 10:53 Sunny 72 22.2 37 2.8 28 28 Calm 29.85 1011 10 16 0.00 0.00
11:53 am 11:53 Sunny 78 25.6 36 2.2 22 22 SSE 6 9 29.82 1010 10 16 0.00 0.00
12:53 pm 12:53 Sunny 81 27.2 40 4.4 23 23 Calm 29.80 1009 10 16 0.00 0.00
1:53 pm 13:53 Sunny 82 27.8 40 4.4 22 22 S 7 11 29.78 1008 10 16 0.00 0.00
2:53 pm 14:53 Sunny 83 28.3 41 5 23 23 S 9 15 29.75 1007 10 16 0.00 0.00
3:53 pm 15:53 Sunny 83 28.3 41 5 23 23 S 10 17 29.72 1007 10 16 0.00 0.00
4:53 pm 16:53 Sunny 82 27.8 42 5.6 24 24 SSE 12 19 29.71 1006 10 16 0.00 0.00
5:53 pm 17:53 Sunny 79 26.1 43 6.1 28 28 SSE 6 9 29.71 1006 10 16 0.00 0.00
6:53 pm 18:53 Clear 77 25 44 6.7 31 31 S 8 13 29.69 1005 10 16 0.00 0.00
7:53 pm 19:53 Clear 77 25 45 7.2 32 32 S 13 20 29.68 1005 10 16 0.00 0.00
8:53 pm 20:53 Mostly Cloudy 76 24.4 47 8.3 36 36 SSW 9 15 29.67 1005 10 16 0.00 0.00
9:53 pm 21:53 Cloudy 75 23.9 49 9.4 40 40 SSW 8 13 29.67 1005 10 16 0.00 0.00
10:53 pm 22:53 Mostly Cloudy 72 22.2 54 12.2 53 53 SSW 5 7 29.67 1005 10 16 0.01 0.13
11:53 pm 23:53 Clear 73 22.8 49 9.4 42 42 WSW 7 11 29.67 1005 10 16 0.00 0.00

Powered by AerisWeather